Dewpoint
-6 -4 -2 -2 -1 1 3 5 7 13 9 10 12 13 16 15 15 14 14 13 12 11 10 10 11 10 10 12 14 15 15 15 15 15 14 15 16 16 15 15 17 16 16 17
-6 -4 -6 -7 -5 0 4 4 5 10 8 7 9 12 14 14 13 14 14 13 13 12 9 11 12 11 10 11 13 15 15 16 16 15 15 14 16 16 15 16 17 16 17 17
-5 -6 -8 -7 -3 3 5 4 5 6 5 2 5 13 15 15 14 14 14 14 13 11 9 13 13 12 11 11 12 14 15 16 16 15 16 15 16 17 15 16 16 16 17 16
-5 -7 -6 -5 2 2 4 1 2 3 6 7 6 11 13 15 15 14 14 14 14 13 10 13 13 13 11 10 12 14 16 16 16 16 15 16 15 14 15 15 16 17 17 16
-4 -6 -4 -1 1 -0 -1 2 2 1 3 5 7 14 17 14 16 15 15 15 14 13 11 13 13 13 12 11 12 14 16 16 15 15 16 16 15 15 14 15 16 15 16 17
-6 -8 -4 -3 -2 -2 0 2 4 2 2 4 1 8 18 13 13 12 13 14 14 15 13 12 13 13 13 11 12 13 16 15 16 17 14 16 16 15 15 15 15 15 16 16
-0 -3 -2 -1 0 -1 2 3 6 6 5 3 -2 6 14 9 9 10 11 11 12 14 14 14 13 13 13 11 11 13 15 17 16 17 17 15 17 16 17 16 15 15 15 15
0 1 1 0 2 2 2 1 3 6 4 0 -2 8 9 7 9 11 12 12 12 11 13 14 14 14 13 13 12 13 15 16 18 17 17 17 17 16 15 15 15 13 15 14
-2 -2 -5 -3 -1 -1 2 2 -5 -3 -2 -2 4 8 8 9 10 13 14 15 15 11 13 14 15 14 13 13 13 13 14 16 18 17 18 17 16 13 15 14 15 15 15 16
-2 -1 -6 -7 -5 -3 -2 -2 -0 -2 2 2 6 8 8 10 12 13 14 15 16 15 12 14 14 14 16 14 13 13 15 16 17 18 18 17 18 17 14 16 16 15 15 15
-4 -3 -3 -6 -4 -1 -1 0 -1 -3 -3 1 7 8 7 11 12 14 13 13 14 16 16 17 17 15 14 14 14 14 15 16 17 17 17 17 17 17 17 17 17 16 14 15
-4 -4 -1 -4 -5 -6 -4 -2 -1 1 1 -3 2 9 8 8 11 12 12 12 13 14 15 15 16 16 16 15 15 16 15 15 15 16 17 17 17 17 17 18 17 17 16 15
-5 -4 -1 -2 -4 -5 -4 -4 -2 -3 -3 1 -0 10 8 8 10 11 12 12 12 12 13 13 14 16 15 15 16 16 15 16 15 15 16 17 17 17 17 17 17 17 17 15
-2 -4 -2 0 -2 -5 -2 -3 -3 -2 -0 0 2 10 9 9 11 11 11 11 11 10 11 11 12 12 14 15 16 16 16 15 15 15 15 16 17 17 17 17 17 17 17 17
-5 -3 -2 -3 -6 -5 -4 -4 -5 -2 -2 -0 7 9 8 8 9 10 10 10 11 10 10 10 10 10 11 12 14 15 15 16 15 15 15 16 16 17 17 17 18 15 17 17
-5 -1 -2 -3 -5 -7 -6 -7 -6 -4 -3 -2 4 8 6 6 7 7 8 9 9 10 10 10 10 10 10 10 10 13 14 15 15 15 15 16 16 16 17 18 17 17 14 16
-1 -3 -0 -3 -4 -6 -5 -6 -6 -7 -5 -3 5 7 6 6 6 6 7 7 7 8 8 8 8 8 9 9 10 10 11 13 14 14 15 15 15 16 16 17 17 17 18 17
-0 1 -1 -2 -1 -0 -4 -6 -9 -7 -5 -2 4 5 5 5 5 4 4 5 5 5 5 5 5 5 7 7 8 9 10 10 10 13 15 15 16 16 16 16 16 17 17 17
-5 -1 -1 -1 -1 -4 -3 -3 -7 -6 -2 -3 1 2 3 2 3 4 4 4 4 4 4 4 4 4 5 6 5 6 8 9 10 9 9 12 14 15 15 15 16 16 17 17
-6 -2 -1 -1 0 -2 -2 -4 -2 -7 -1 -1 -0 0 0 -0 0 5 4 3 3 3 3 3 3 3 4 5 4 5 6 7 8 9 10 10 8 12 14 15 15 15 16 17
-0 -0 0 -1 0 -2 -0 -2 -3 -1 3 1 -1 1 0 -0 4 4 3 2 2 2 2 3 3 3 3 4 4 5 6 6 8 8 8 9 8 5 9 13 14 15 16 15
1 2 1 0 1 3 -1 -2 -1 3 2 1 1 1 1 1 1 1 1 2 2 2 2 2 2 3 3 4 4 5 6 7 7 6 8 9 9 8 7 4 6 12 14 15
3 -0 3 -0 4 3 0 0 3 2 2 1 0 -0 0 -0 -0 0 1 1 1 2 2 2 2 3 3 4 5 5 5 6 6 6 6 8 8 8 8 2 4 9 11 12
-1 -1 2 2 1 2 1 1 -0 -2 -2 -1 -1 -2 -1 -1 -0 0 1 1 1 2 2 2 3 3 4 5 5 5 5 5 5 6 6 6 7 7 5 8 7 7 8 10
2 1 2 1 -0 0 0 -2 -2 -2 -1 -2 -1 -1 -1 -1 -0 0 0 1 1 1 2 2 3 3 3 3 4 4 5 5 5 5 5 5 5 5 4 5 6 7 4 6
-1 2 5 6 -0 -0 -2 0 -1 -0 -0 -0 -1 -1 -0 0 1 1 1 1 2 2 2 2 3 3 3 3 4 4 5 5 6 6 5 4 4 4 4 4 3 3 4 3
Wind_Speed
19 14 17 20 21 21 16 15 13 11 15 10 11 19 19 20 21 22 23 20 19 23 22 20 19 19 18 17 16 16 16 16 15 12 11 10 8 9 6 8 5 6 4 4
13 18 17 17 16 14 19 19 18 4 10 8 14 17 16 20 17 20 20 22 21 24 24 21 20 19 19 19 18 17 16 16 16 12 11 8 11 8 7 6 6 6 5 5
15 15 15 14 16 15 18 16 14 11 9 14 13 17 19 10 10 11 19 19 23 24 25 25 21 20 19 19 19 18 18 16 17 13 11 9 5 6 6 8 6 6 6 4
15 9 14 12 17 18 17 17 19 20 14 12 18 9 18 22 13 16 13 12 18 21 27 26 24 22 20 19 20 18 18 17 17 16 14 11 10 8 9 6 6 6 7 8
16 13 13 18 17 19 13 9 6 10 16 11 21 9 12 18 16 16 20 19 22 23 26 31 27 25 21 20 20 19 18 18 17 17 13 12 11 7 9 10 9 9 8 7
12 13 15 18 16 17 4 18 13 12 14 13 14 11 13 15 15 16 13 17 20 24 27 24 28 28 25 23 21 20 19 19 19 17 19 15 10 10 7 8 7 6 7 7
7 16 16 12 16 13 9 13 11 11 13 11 18 7 8 13 6 9 8 12 17 22 33 28 29 29 29 27 25 22 21 20 19 18 16 16 13 10 6 9 9 11 9 9
12 15 10 13 15 14 18 21 13 13 14 14 11 11 10 13 11 11 11 5 7 22 24 31 30 30 32 30 27 24 22 21 20 21 20 17 15 11 11 11 10 8 8 7
14 12 10 4 14 8 18 20 25 15 17 14 13 15 13 13 13 15 8 7 12 6 28 27 26 31 35 33 30 27 25 22 20 20 20 20 18 15 13 13 11 10 10 7
10 13 14 10 9 14 12 15 19 10 14 16 16 18 13 14 12 8 11 12 15 12 7 15 31 33 29 39 32 28 25 23 20 18 19 19 19 18 19 15 16 13 11 10
10 3 11 9 14 17 11 12 15 14 15 12 13 9 18 14 11 10 11 13 15 16 14 8 5 19 28 28 32 30 25 23 20 18 18 19 19 19 17 18 16 16 18 15
6 7 11 17 5 4 11 11 17 11 18 14 5 10 15 14 19 16 13 13 14 15 15 19 16 9 14 16 15 25 25 24 22 19 17 18 18 18 18 18 17 16 16 16
3 10 7 6 7 8 11 12 10 15 16 12 15 11 16 12 20 19 16 15 16 17 18 20 19 14 19 18 13 13 11 12 19 22 20 18 18 18 20 20 18 18 17 16
6 13 6 5 2 12 18 7 10 13 11 11 3 24 20 18 17 16 17 16 18 19 21 21 23 23 18 13 10 8 10 10 9 11 19 20 18 19 19 19 20 18 19 18
5 9 5 5 6 7 8 10 7 15 17 9 18 20 20 16 17 19 16 16 18 19 20 21 22 23 22 21 12 4 5 9 10 12 8 7 14 17 18 20 19 24 22 22
4 6 7 7 0 0 5 7 5 5 4 8 18 17 16 19 16 15 15 15 15 15 16 16 17 17 18 20 19 16 4 2 7 11 12 10 10 10 14 15 18 22 26 29
5 4 7 13 5 5 10 12 11 7 5 9 17 18 17 15 16 14 13 12 12 12 12 13 13 14 14 15 15 18 17 12 4 6 9 17 19 18 19 18 19 19 20 22
4 7 7 9 4 12 5 5 3 7 7 7 14 17 18 16 15 11 9 10 9 9 9 9 10 11 11 11 13 13 13 18 14 9 6 13 13 15 18 21 20 21 24 24
6 7 8 11 9 3 6 5 7 12 11 7 13 11 13 14 17 11 7 6 6 6 6 7 8 9 10 10 12 12 11 12 13 16 15 11 9 15 18 19 18 18 20 23
7 7 7 8 11 14 16 12 4 1 11 11 9 13 13 13 11 14 7 4 4 5 6 7 9 8 8 9 11 11 10 11 11 13 14 13 15 14 13 14 18 23 21 21
7 7 10 10 7 3 11 9 6 10 5 14 11 11 7 3 12 10 4 2 3 4 5 8 9 9 9 10 11 11 11 10 12 13 13 14 14 16 15 14 15 20 23 24
7 6 7 10 10 11 12 7 7 12 13 12 11 9 6 3 4 3 1 3 5 5 6 6 8 9 10 12 12 12 12 13 15 16 16 15 15 16 14 18 16 15 18 21
5 4 4 3 4 8 11 4 11 10 11 7 6 7 5 4 2 1 2 3 4 5 6 7 8 9 9 11 13 16 16 17 18 19 18 18 18 17 18 19 18 14 17 16
6 3 3 5 7 5 9 6 7 7 9 9 8 7 6 6 5 4 3 4 5 6 7 8 9 9 9 10 12 13 17 20 21 21 22 21 20 20 20 18 16 15 15 15
6 4 6 8 4 7 10 10 10 9 9 8 7 6 6 4 3 1 2 3 5 7 9 9 12 12 13 14 13 14 16 18 21 23 23 22 21 21 21 20 20 18 20 20
12 7 6 5 7 13 8 17 13 12 11 9 9 8 6 5 2 1 1 3 5 8 10 11 12 12 14 13 14 14 15 14 17 19 21 22 22 22 23 23 23 23 28 28
Wind_Direction
197 208 208 202 211 231 218 217 250 159 151 176 160 133 155 172 185 172 181 187 193 185 179 178 182 181 178 176 174 174 171 177 170 171 166 171 175 169 154 166 162 183 169 190
185 220 202 220 214 242 256 215 173 95 148 222 135 138 142 172 160 169 182 180 198 194 179 179 179 179 183 182 180 180 179 183 176 179 180 185 185 181 179 188 171 181 180 193
203 202 217 215 203 215 237 218 140 166 178 233 167 135 140 165 158 169 177 195 193 205 181 179 182 182 184 187 186 185 183 189 184 189 191 200 194 130 168 184 171 183 182 181
224 210 195 207 197 215 206 231 153 214 190 194 196 159 166 154 168 173 177 192 208 212 182 182 188 187 185 184 184 186 185 190 191 190 189 197 191 193 190 186 182 174 176 186
205 185 189 206 212 211 224 170 205 191 217 202 195 123 306 152 161 174 172 206 197 203 196 191 189 194 195 183 185 187 187 190 191 198 187 201 199 233 151 189 182 185 194 189
224 214 197 208 214 202 281 164 197 223 238 239 219 192 204 167 173 178 188 188 208 191 209 206 194 194 198 187 190 191 194 198 193 202 200 196 215 216 202 199 167 192 196 190
192 193 203 236 198 195 171 194 193 209 218 226 219 161 102 73 58 102 158 208 198 195 189 198 202 199 195 196 193 193 201 202 205 208 208 216 217 227 231 201 210 202 193 190
185 188 171 210 231 184 205 208 204 193 206 207 207 138 118 122 116 80 31 7 243 209 202 193 197 204 196 198 194 197 199 207 210 212 217 220 217 222 222 216 205 202 209 196
182 168 127 260 250 265 192 234 227 271 208 211 133 91 125 115 94 66 49 7 9 241 190 200 201 193 200 196 193 196 200 208 210 215 217 222 225 213 214 217 222 234 233 216
304 132 191 173 232 254 269 226 239 245 249 213 134 160 147 140 97 67 41 32 24 12 210 176 191 203 208 192 192 195 200 205 208 210 217 220 219 223 213 213 218 217 230 242
308 257 162 180 205 208 213 241 244 246 260 213 154 117 114 115 99 88 59 41 31 40 44 58 113 216 213 193 191 194 200 206 210 212 214 216 218 219 220 219 221 224 221 220
245 285 163 203 92 314 301 242 218 243 230 271 2 95 100 132 123 99 80 57 51 48 46 53 51 23 111 148 171 198 197 208 213 216 216 219 220 219 223 225 224 226 229 226
319 253 142 185 191 209 236 219 270 255 273 269 251 137 128 131 100 94 89 72 59 55 46 45 46 45 45 63 85 186 196 230 215 216 218 222 222 221 222 226 226 225 228 231
291 279 253 13 76 202 207 226 233 270 241 244 195 138 144 135 115 97 96 84 71 59 55 49 43 41 34 29 46 121 186 196 209 206 216 218 226 223 228 231 225 228 230 231
288 264 320 60 13 358 166 200 218 237 253 308 129 145 142 130 119 120 100 88 79 71 62 55 49 44 39 39 36 18 228 207 187 188 216 174 228 237 231 228 239 228 228 238
233 255 259 205 292 290 227 169 265 285 281 253 120 109 112 114 121 113 110 101 84 75 66 62 59 54 46 34 29 37 11 288 240 237 224 226 218 214 228 246 244 239 232 224
262 236 225 243 149 247 239 216 210 189 232 260 155 141 138 145 134 121 112 97 86 76 68 60 55 49 45 40 33 22 21 24 335 232 233 240 243 238 230 229 238 247 250 243
230 235 240 256 178 241 81 17 247 178 176 71 90 128 151 137 128 117 105 104 89 74 62 50 41 36 34 29 26 26 22 7 9 10 277 252 243 240 238 242 240 249 247 246
271 245 234 254 218 171 155 175 186 195 157 178 136 134 132 148 142 139 119 99 83 60 46 30 18 15 15 13 11 11 14 12 6 4 359 339 321 266 258 253 247 243 248 248
222 250 262 208 254 236 72 106 47 181 192 161 161 166 162 172 205 123 132 99 64 27 9 0 357 357 354 353 354 355 355 356 353 355 351 349 339 329 303 271 257 253 250 257
199 217 225 227 230 214 104 122 156 212 105 148 172 158 163 169 67 110 112 52 10 357 349 343 341 337 332 334 333 337 335 335 333 334 333 332 328 331 325 306 281 261 257 259
200 204 216 242 225 229 135 150 226 92 121 126 128 138 140 117 106 103 31 332 324 322 322 323 325 319 318 320 321 317 314 313 315 317 319 319 321 319 312 317 319 299 279 263
261 246 296 267 49 88 145 68 127 135 142 149 162 150 168 178 163 68 30 20 0 345 330 324 317 314 315 314 313 309 306 305 306 304 305 305 307 309 309 307 309 315 313 298
231 279 258 352 162 154 148 142 158 162 139 137 135 140 143 138 131 112 70 30 12 354 347 339 338 327 317 314 312 304 303 301 299 296 296 298 298 298 305 300 297 296 299 297
256 153 238 243 210 188 191 183 169 154 148 142 138 140 140 146 144 86 35 19 4 353 342 332 323 319 319 319 314 314 309 298 293 292 290 289 289 290 289 287 291 286 281 280
229 212 205 228 238 210 239 196 188 175 167 167 164 159 152 145 149 132 59 0 355 349 344 336 326 318 312 308 315 316 317 293 297 287 285 283 280 279 282 283 284 286 295 286
Height
1494 1489 1487 1480 1476 1464 1462 1465 1476 1489 1471 1480 1493 1500 1517 1527 1529 1532 1536 1540 1542 1545 1549 1555 1560 1564 1569 1573 1576 1580 1583 1586 1589 1592 1594 1595 1596 1597 1598 1601 1601 1602 1603 1604
1490 1487 1474 1472 1470 1469 1465 1461 1469 1479 1470 1477 1481 1494 1510 1519 1521 1528 1533 1537 1542 1543 1548 1554 1558 1563 1567 1571 1574 1578 1582 1584 1589 1592 1593 1595 1594 1596 1599 1600 1602 1603 1604 1604
1480 1475 1471 1472 1473 1477 1467 1458 1465 1474 1479 1476 1482 1500 1509 1521 1520 1526 1531 1536 1541 1541 1546 1553 1557 1561 1565 1569 1573 1576 1580 1583 1587 1591 1593 1595 1596 1593 1599 1600 1601 1603 1604 1605
1476 1468 1472 1476 1476 1475 1475 1458 1464 1472 1483 1488 1472 1501 1496 1510 1520 1524 1530 1535 1537 1540 1544 1549 1555 1558 1562 1567 1572 1575 1578 1582 1585 1588 1592 1594 1595 1596 1597 1599 1599 1602 1604 1605
1475 1470 1477 1482 1475 1474 1468 1462 1468 1474 1479 1474 1477 1511 1528 1494 1514 1519 1528 1533 1534 1538 1540 1546 1550 1556 1560 1565 1570 1573 1576 1579 1584 1587 1588 1593 1594 1593 1594 1596 1600 1602 1603 1604
1464 1471 1475 1473 1471 1472 1469 1467 1479 1478 1475 1484 1466 1477 1528 1497 1503 1508 1521 1529 1530 1533 1538 1541 1547 1553 1556 1561 1567 1571 1574 1577 1581 1584 1587 1590 1593 1594 1595 1597 1599 1602 1603 1604
1471 1471 1471 1470 1472 1474 1477 1482 1498 1503 1494 1486 1460 1477 1511 1498 1503 1505 1515 1518 1520 1526 1532 1538 1542 1547 1552 1556 1562 1568 1572 1575 1579 1583 1585 1588 1592 1593 1595 1596 1599 1598 1601 1602
1479 1488 1471 1473 1468 1477 1478 1475 1480 1505 1492 1479 1452 1488 1507 1507 1512 1516 1521 1519 1520 1518 1525 1532 1536 1542 1547 1552 1557 1563 1568 1572 1575 1579 1583 1586 1589 1593 1595 1596 1598 1599 1600 1603
1467 1475 1475 1477 1475 1477 1474 1476 1452 1460 1452 1464 1474 1504 1505 1510 1515 1528 1533 1528 1520 1515 1517 1525 1530 1534 1539 1544 1550 1557 1564 1568 1572 1576 1580 1582 1585 1589 1593 1595 1596 1597 1600 1597
1462 1478 1478 1481 1486 1480 1478 1467 1473 1465 1479 1480 1478 1499 1497 1510 1520 1532 1534 1531 1526 1519 1518 1516 1520 1525 1522 1530 1540 1550 1558 1564 1568 1573 1576 1579 1582 1585 1589 1592 1593 1596 1597 1598
1465 1464 1481 1483 1481 1478 1478 1477 1464 1457 1451 1461 1492 1496 1491 1513 1527 1534 1536 1535 1532 1527 1525 1525 1525 1531 1530 1536 1537 1540 1551 1560 1565 1569 1573 1576 1579 1582 1584 1587 1589 1591 1593 1595
1472 1467 1479 1480 1475 1480 1474 1470 1471 1475 1475 1455 1469 1511 1506 1515 1523 1533 1538 1538 1536 1532 1531 1527 1525 1518 1494 1530 1536 1528 1541 1553 1560 1565 1569 1572 1576 1579 1582 1583 1586 1588 1589 1591
1482 1474 1479 1488 1486 1483 1482 1476 1475 1464 1457 1469 1468 1509 1513 1520 1523 1532 1539 1540 1539 1536 1532 1530 1528 1521 1526 1530 1534 1529 1538 1544 1554 1560 1565 1568 1572 1575 1577 1580 1582 1584 1586 1587
1495 1473 1473 1490 1473 1471 1485 1482 1484 1479 1480 1472 1468 1503 1510 1519 1530 1537 1540 1542 1542 1540 1538 1535 1532 1530 1529 1527 1528 1533 1540 1545 1549 1551 1558 1563 1567 1571 1574 1576 1578 1581 1582 1583
1492 1489 1483 1486 1487 1477 1475 1484 1489 1489 1480 1484 1495 1501 1505 1514 1524 1538 1543 1544 1545 1545 1545 1543 1542 1540 1539 1538 1541 1542 1545 1547 1548 1550 1552 1556 1565 1566 1568 1571 1572 1574 1578 1578
1492 1492 1492 1492 1495 1494 1494 1494 1497 1488 1487 1485 1488 1509 1514 1523 1531 1536 1542 1547 1549 1550 1550 1551 1551 1551 1551 1550 1549 1549 1548 1548 1549 1550 1550 1552 1555 1558 1563 1566 1566 1568 1569 1572
1497 1489 1499 1497 1492 1495 1502 1491 1494 1493 1492 1485 1495 1510 1521 1529 1534 1539 1545 1549 1552 1553 1555 1555 1556 1556 1556 1556 1556 1553 1551 1550 1549 1549 1550 1552 1554 1556 1557 1559 1562 1564 1565 1566
1500 1500 1494 1498 1499 1514 1490 1491 1487 1494 1500 1499 1506 1513 1523 1531 1540 1547 1550 1552 1555 1556 1557 1557 1558 1558 1558 1558 1557 1556 1556 1552 1551 1551 1551 1550 1551 1552 1553 1555 1556 1558 1560 1562
1500 1499 1498 1500 1499 1494 1500 1501 1500 1499 1508 1509 1514 1523 1529 1536 1541 1550 1553 1554 1555 1556 1557 1557 1557 1557 1557 1557 1557 1556 1557 1556 1555 1552 1550 1549 1547 1549 1549 1549 1550 1552 1554 1555
1501 1503 1501 1500 1505 1501 1491 1500 1506 1502 1507 1517 1518 1526 1531 1535 1533 1540 1551 1553 1555 1555 1556 1556 1556 1557 1557 1557 1557 1556 1556 1556 1555 1553 1552 1550 1548 1547 1546 1545 1547 1547 1547 1548
1507 1506 1507 1501 1504 1494 1502 1511 1514 1519 1516 1520 1522 1529 1534 1534 1540 1547 1549 1552 1553 1554 1555 1555 1555 1555 1555 1555 1555 1555 1554 1554 1553 1552 1551 1550 1547 1546 1544 1544 1542 1542 1542 1542
1505 1509 1503 1502 1502 1509 1509 1515 1515 1519 1523 1526 1530 1536 1538 1541 1544 1547 1549 1550 1551 1552 1553 1553 1554 1554 1554 1553 1552 1552 1552 1551 1549 1548 1548 1547 1546 1544 1543 1541 1539 1538 1537 1537
1509 1500 1501 1498 1503 1509 1512 1515 1520 1523 1527 1531 1533 1536 1540 1541 1544 1546 1547 1549 1549 1550 1550 1550 1551 1551 1551 1551 1550 1548 1547 1546 1545 1544 1543 1543 1542 1541 1539 1537 1537 1537 1535 1531
1507 1510 1511 1511 1507 1513 1516 1520 1523 1525 1528 1531 1534 1536 1539 1541 1543 1545 1547 1548 1548 1548 1548 1548 1547 1546 1546 1545 1545 1545 1544 1542 1540 1539 1538 1538 1538 1537 1536 1534 1532 1532 1531 1530
1510 1513 1514 1513 1512 1516 1519 1521 1524 1526 1529 1531 1534 1536 1539 1541 1543 1544 1545 1547 1547 1547 1547 1546 1545 1543 1541 1541 1540 1540 1540 1539 1537 1535 1534 1533 1533 1533 1532 1531 1529 1526 1524 1524
1509 1510 1514 1515 1511 1514 1513 1519 1523 1526 1528 1531 1533 1536 1538 1540 1542 1543 1544 1545 1545 1545 1545 1544 1543 1541 1539 1535 1534 1534 1533 1531 1531 1530 1530 1529 1528 1527 1527 1525 1523 1521 1517 1516